Flag for U.S.A. Weather past 2 weeks in Kennebunk, Maine, U.S.A.

Now
66 °F

Low clouds.


Feels Like: 66 °F
Forecast: 62 / 71 °F
Wind: 3 mph from Southeast

Location: Sanford Municipal

Current Time: Jul 28, 2014 at 5:19:09 AM

Latest Report: Jul 28, 2014 at 4:55 AM


Visibility: 0 mi

Pressure: 29.65 "Hg

Humidity: 88%

Dew point: 63 °F

Location of KennebunkLocation

Historic Weather in Kennebunk — Graph

°F

Kennebunk temperature yesterday

Maximum temperature yesterday: 75 °F (at 11:55 AM)
Minimum temperature yesterday: 55 °F (at 4:55 AM)
Average temperature yesterday: 66 °F

Past Weeks' High & Low Weather Summary

 TemperatureHumidityPressure
High91 °F (Jul 23, 1:15 PM)94% (Jul 16, 1:15 AM)30.28 "Hg (Jul 16, 1:15 AM)
Low48 °F (Jul 21, 5:15 AM)37% (Jul 18, 12:35 PM)29.63 "Hg (Jul 28, 3:35 AM)
Average70 °F71%29.96 "Hg
* Reported Jul 13 4:15 AM — Jul 28 4:15 AM, Kennebunk, Weather by CustomWeather, © 2014

Note: Actual official high and low records may vary slightly from our data, if they occured in-between our weather recording intervals... More about our weather records

Advertising

Kennebunk weather history for previous 24 hours

 ConditionsComfort  
Time TempWeatherWind HumidityBarometerVisibility
4:15 AM
Jul 28
66 °FLow clouds.3 mph94%29.64 "Hg1 mi
3:55 AM66 °FLow clouds.3 mph94%29.64 "Hg1 mi
3:35 AM68 °FLow clouds.No wind88%29.63 "Hg1 mi
3:15 AM70 °FLow clouds.No wind83%29.64 "Hg1 mi
2:55 AM70 °FLow clouds.5 mph83%29.65 "Hg1 mi
2:35 AM70 °FLow clouds.No wind83%29.66 "Hg1 mi
2:15 AM68 °FLow clouds.No wind88%29.66 "Hg1 mi
1:55 AM68 °FLow clouds.No wind88%29.65 "Hg1 mi
1:35 AM68 °FLow clouds.No wind88%29.66 "Hg1 mi
1:15 AM70 °FLow clouds.6 mph83%29.66 "Hg1 mi
12:55 AM68 °FLow clouds.3 mph88%29.67 "Hg2 mi
12:35 AM70 °FLow clouds.3 mph83%29.67 "Hg4 mi
12:15 AM68 °FLow clouds.3 mph88%29.68 "Hg3 mi
11:55 PM
Jul 27
68 °FLow clouds.No wind88%29.68 "Hg4 mi
11:35 PM66 °FLow clouds.No wind88%29.67 "Hg3 mi
11:15 PM66 °FLow clouds.No wind88%29.68 "Hg3 mi
10:35 PM66 °FLow clouds.No wind88%29.69 "Hg5 mi
10:15 PM66 °FLow clouds.No wind88%29.69 "Hg5 mi
9:55 PM66 °FLow clouds.No wind88%29.69 "Hg5 mi
9:35 PM66 °FLow clouds.No wind88%29.70 "Hg5 mi
9:15 PM66 °FPartly cloudy.No wind88%29.70 "Hg5 mi
8:55 PM66 °FBroken clouds.3 mph88%29.69 "Hg7 mi
8:35 PM66 °FMostly cloudy.No wind88%29.69 "Hg9 mi
8:15 PM68 °FMostly cloudy.No wind83%29.68 "Hg8 mi
7:55 PM68 °FLow clouds.No wind83%29.68 "Hg10 mi
7:35 PM68 °FLow clouds.No wind83%29.69 "Hg10 mi
7:15 PM68 °FLow clouds.No wind83%29.68 "Hg10 mi
6:55 PM68 °FLow clouds.3 mph83%29.69 "Hg10 mi
6:35 PM68 °FMostly cloudy.6 mph83%29.68 "Hg10 mi
6:15 PM68 °FLow clouds.8 mph83%29.69 "Hg10 mi
5:55 PM70 °FMostly cloudy.9 mph78%29.68 "Hg10 mi
5:35 PM70 °FLow clouds.9 mph78%29.69 "Hg10 mi
5:15 PM70 °FMostly cloudy.7 mph83%29.70 "Hg10 mi
4:35 PM70 °FLow clouds.6 mph83%29.70 "Hg10 mi
4:15 PM70 °FMostly cloudy.9 mph83%29.71 "Hg10 mi
3:55 PM70 °FMostly cloudy.7 mph83%29.71 "Hg10 mi
3:35 PM70 °FMostly cloudy.9 mph83%29.72 "Hg10 mi
3:15 PM72 °FMostly cloudy.7 mph78%29.73 "Hg10 mi
2:55 PM72 °FMore clouds than sun.7 mph83%29.73 "Hg10 mi
2:35 PM72 °FBroken clouds.8 mph83%29.73 "Hg9 mi
2:15 PM70 °FBroken clouds.8 mph83%29.74 "Hg10 mi
1:55 PM70 °FBroken clouds.7 mph83%29.73 "Hg8 mi
1:35 PM68 °FThundershowers. Broken clouds.7 mph88%29.74 "Hg8 mi
1:15 PM68 °FCloudy.8 mph88%29.75 "Hg5 mi
12:55 PM68 °FCloudy.5 mph88%29.74 "Hg3 mi
12:35 PM70 °FThunderstorms. Broken clouds.7 mph83%29.75 "Hg3 mi
12:15 PM73 °FThundershowers. Broken clouds.5 mph74%29.75 "Hg10 mi
11:55 AM75 °FMore clouds than sun.7 mph69%29.76 "Hg10 mi
11:35 AM73 °FCloudy.7 mph74%29.77 "Hg10 mi
11:15 AM73 °FMostly cloudy.5 mph74%29.77 "Hg10 mi
10:55 AM72 °FMostly cloudy.10 mph73%29.77 "Hg10 mi
10:35 AM70 °FLow clouds.7 mph78%29.78 "Hg10 mi
9:55 AM70 °FLow clouds.5 mph78%29.79 "Hg9 mi
9:35 AM70 °FLow clouds.8 mph78%29.80 "Hg8 mi
9:15 AM70 °FLow clouds.10 mph78%29.81 "Hg10 mi
8:55 AM70 °FLow clouds.9 mph78%29.81 "Hg10 mi
8:35 AM68 °FLow clouds.8 mph83%29.81 "Hg10 mi
8:15 AM66 °FLow clouds.7 mph83%29.82 "Hg10 mi
7:55 AM66 °FScattered clouds.7 mph83%29.82 "Hg10 mi
7:35 AM66 °FPassing clouds.6 mph83%29.82 "Hg10 mi
6:55 AM63 °FSunny.No wind88%29.81 "Hg10 mi
6:35 AM63 °FSunny.No wind83%29.82 "Hg9 mi
6:15 AM63 °FClear.3 mph83%29.82 "Hg9 mi
5:55 AM61 °FClear.No wind88%29.82 "Hg8 mi
5:35 AM61 °FClear.No wind83%29.83 "Hg6 mi
5:15 AM57 °FClear.No wind88%29.83 "Hg8 mi
Weather by CustomWeather, © 2014

See weather overviewHow to use our weather pages